Regional Weather Roundup
Issued by NWS

Home | Current Version | Previous Version | Text Only | Print | Product List | Glossary On
Versions: 1 2 3 4 5 6 7 8 9 10 11 12 13 14 15 16 17 18 19 20 21 22 23 24 25 26 27
000
ASUS44 KBMX 280810
RWRAL

ALABAMA REGIONAL WEATHER ROUNDUP
NATIONAL WEATHER SERVICE BIRMINGHAM AL
300 AM CDT SAT MAY 28 2016

NOTE: "FAIR" INDICATES FEW OR NO CLOUDS BELOW 12,000 FEET
WITH NO SIGNIFICANT WEATHER AND/OR OBSTRUCTIONS TO VISIBILITY.

THE REMARK "TC" DENOTES TEMPERATURE IN DEGREES CELSIUS.

ALZ001>011-014-016>018-020-280900-
NORTH ALABAMA

CITY           SKY/WX    TMP DP  RH WIND       PRES   REMARKS
MUSCLE SHOALS  PTCLDY    70  64  81 SE6       29.99S
HUNTSVILLE     CLOUDY    73  62  68 SE8       30.01S
DECATUR        CLOUDY    73  64  73 SE7       30.00F
HALEYVILLE     FAIR      70  66  87 SE5       30.02S
GADSDEN        CLOUDY    75  62  64 SE8       30.03F
$$

ALZ012-013-022-023-030>036-040>044-280900-
WEST CENTRAL ALABAMA

CITY           SKY/WX    TMP DP  RH WIND       PRES   REMARKS
TUSCALOOSA     CLOUDY    71  69  93 S3        30.00R
$$

ALZ015-024>027-033>036-040>044-280900-
CENTRAL ALABAMA

CITY           SKY/WX    TMP DP  RH WIND       PRES   REMARKS
BIRMINGHAM     CLEAR     76  63  64 CALM      30.03S
MONTGOMERY     CLOUDY    73  65  75 CALM      30.02F
SHELBY CO ARPT CLOUDY    72  64  76 S5        30.03R
MAXWELL AFB    CLOUDY    71  67  84 CALM      30.02S
GREENVILLE     FAIR      69  64  84 CALM      30.02S
$$

ALZ019-021-028-029-037-038-045>048-280900-
EAST CENTRAL ALABAMA

CITY           SKY/WX    TMP DP  RH WIND       PRES   REMARKS
ANNISTON       CLOUDY    71  61  70 E6        30.05R
ALEXANDER CITY PTCLDY    67  66  96 CALM      30.06R
AUBURN         CLEAR    N/A N/A N/A SE5       30.08R
$$

ALZ051>064-280900-
SOUTHWEST ALABAMA

CITY           SKY/WX    TMP DP  RH WIND       PRES   REMARKS
MOBILE         CLOUDY    71  69  93 E5        30.00S
BROOKLEY FIELD CLEAR     70  68  93 CALM      30.00S
EVERGREEN      CLOUDY    68  66  93 CALM      30.01F
$$

ALZ049-050-065>069-280900-
SOUTHEAST ALABAMA

CITY           SKY/WX    TMP DP  RH WIND       PRES   REMARKS
DOTHAN         PTCLDY    72  63  73 E7        30.06S
OZARK          CLOUDY    68  65  91 N1        30.02R
TROY           CLOUDY    68  66  93 CALM      30.04R
EUFAULA        FAIR      69  62  78 S5        30.04R
$$




USA.gov is the U.S. government's official web portal to all federal, state and local government web resources and services.